This is the latest recevied weather packets stored in our database for station/object W8KJR. If no packets are shown the sender has not sent any weather packets the latest 10 day(s).
| Time | Temp. | Humidity | Pressure | Rain* | Wind** | Luminosity | Snow |
|---|---|---|---|---|---|---|---|
| 1777857405 | 10° C | 73% | 1011.1 hPa | 0 mm | - | - | - |
| 1777856505 | 10.56° C | 72% | 1011 hPa | 0 mm | - | - | - |
| 1777855603 | 10.56° C | 71% | 1011 hPa | 0 mm | - | - | - |
| 1777854699 | 10.56° C | 71% | 1011.2 hPa | 0 mm | - | - | - |
| 1777853797 | 10.56° C | 69% | 1011.2 hPa | 0 mm | - | - | - |
| 1777852893 | 11.11° C | 68% | 1011.1 hPa | 0 mm | - | - | - |
| 1777851992 | 11.11° C | 67% | 1011.3 hPa | 0 mm | - | - | - |
| 1777851087 | 11.11° C | 66% | 1011.8 hPa | 0 mm | - | - | - |
| 1777850186 | 11.67° C | 65% | 1011.9 hPa | 0 mm | - | - | - |
| 1777849282 | 12.22° C | 64% | 1012 hPa | 0 mm | - | - | - |
| 1777848382 | 12.22° C | 63% | 1012 hPa | 0 mm | - | - | - |
| 1777847480 | 13.33° C | 60% | 1011.8 hPa | 0 mm | - | - | - |
| 1777846579 | 13.89° C | 59% | 1011.7 hPa | 0 mm | - | - | - |
| 1777845675 | 15.56° C | 42% | 1011.4 hPa | 0 mm | - | - | - |
| 1777844773 | 16.11° C | 40% | 1011.4 hPa | 0 mm | - | - | - |
| 1777843870 | 15.56° C | 41% | 1011.5 hPa | 0 mm | - | - | - |
| 1777842968 | 16.11° C | 41% | 1011.6 hPa | 0 mm | - | - | - |
| 1777842062 | 16.11° C | 40% | 1011.8 hPa | 0 mm | - | - | - |
| 1777841158 | 16.11° C | 42% | 1011.7 hPa | 0 mm | - | - | - |
| 1777840255 | 16.67° C | 39% | 1012.1 hPa | 0 mm | - | - | - |
| 1777839354 | 17.78° C | 38% | 1012.1 hPa | 0 mm | - | - | - |
| 1777838450 | 16.67° C | 39% | 1012.5 hPa | 0 mm | - | - | - |
| 1777837547 | 17.22° C | 37% | 1012.7 hPa | 0 mm | - | - | - |
| 1777836644 | 17.22° C | 37% | 1012.5 hPa | 0 mm | - | - | - |
| 1777835739 | 17.22° C | 38% | 1013 hPa | 0 mm | - | - | - |
* Rain latest hour (hover to see other rain measurements)
** Current wind speed in m/s (hover to see current wind gust speed)